• En España
  • Lista de países
  • Para 7 días
  • Temperatura del agua
  • Mapa Satelital
  • El tiempo en el mapa
  • Informadores
  • user-avatar
    Iniciar sesión

    Tiempo cada hora Sao Felix da Marinha

    Hoy, 23 Enero, Martes

    Tiempo Temperatura Precipitaciones Viento Presión Humedad
    00:00 +11°C° 0 mm 1 mps 766 mmHg 93%
    01:00 +11°C° 0 mm 1 mps 766 mmHg 93%
    02:00 +11°C° 0 mm 1 mps 766 mmHg 93%
    03:00 +10°C° 0 mm 1 mps 766 mmHg 93%
    04:00 +10°C° 0 mm 1 mps 766 mmHg 93%
    05:00 +10°C° 0 mm 1 mps 766 mmHg 93%
    06:00 +11°C° 0 mm 1 mps 766 mmHg 91%
    07:00 +11°C° 0 mm 1 mps 766 mmHg 90%
    08:00 +11°C° 0 mm 1 mps 766 mmHg 89%
    09:00 +13°C° 0 mm 1 mps 766 mmHg 82%
    10:00 +15°C° 0 mm 1 mps 766 mmHg 75%
    11:00 +18°C° 0 mm 1 mps 766 mmHg 67%
    12:00 +18°C° 0 mm 1 mps 766 mmHg 66%
    13:00 +19°C° 0 mm 1 mps 765 mmHg 65%
    14:00 +18°C° 0 mm 2 mps 765 mmHg 64%
    15:00 +16°C° 0 mm 1 mps 765 mmHg 72%
    16:00 +15°C° 0 mm 1 mps 765 mmHg 80%
    17:00 +13°C° 0 mm 1 mps 765 mmHg 88%
    18:00 +12°C° 0 mm 1 mps 765 mmHg 90%
    19:00 +12°C° 0 mm 1 mps 765 mmHg 91%
    20:00 +11°C° 0 mm 1 mps 766 mmHg 93%
    21:00 +11°C° 0 mm 1 mps 766 mmHg 93%
    22:00 +11°C° 0 mm 1 mps 765 mmHg 93%
    23:00 +10°C° 0 mm 0 mps 765 mmHg 93%

    Mañana, 24 Enero, Miércoles

    Tiempo Temperatura Precipitaciones Viento Presión Humedad
    00:00 +10°C° 0 mm 1 mps 765 mmHg 93%
    01:00 +10°C° 0 mm 1 mps 765 mmHg 93%
    02:00 +10°C° 0 mm 1 mps 765 mmHg 93%
    03:00 +10°C° 0 mm 1 mps 764 mmHg 93%
    04:00 +10°C° 0 mm 1 mps 764 mmHg 93%
    05:00 +9°C° 0 mm 2 mps 764 mmHg 93%
    06:00 +9°C° 0 mm 2 mps 764 mmHg 92%
    07:00 +9°C° 0 mm 2 mps 764 mmHg 92%
    08:00 +10°C° 0 mm 2 mps 764 mmHg 91%
    09:00 +12°C° 0 mm 2 mps 764 mmHg 85%
    10:00 +13°C° 0 mm 3 mps 764 mmHg 79%
    11:00 +14°C° 0 mm 3 mps 764 mmHg 73%
    12:00 +16°C° 0 mm 3 mps 763 mmHg 71%
    13:00 +16°C° 0 mm 3 mps 763 mmHg 70%
    14:00 +15°C° 0 mm 4 mps 762 mmHg 69%
    15:00 +14°C° 0 mm 4 mps 762 mmHg 75%
    16:00 +13°C° 0 mm 4 mps 762 mmHg 81%
    17:00 +12°C° 0 mm 4 mps 762 mmHg 87%
    18:00 +12°C° 0,2 mm 4 mps 762 mmHg 88%
    19:00 +12°C° 0,2 mm 4 mps 762 mmHg 89%
    20:00 +12°C° 0,2 mm 5 mps 762 mmHg 89%
    21:00 +12°C° 0,7 mm 5 mps 762 mmHg 90%
    22:00 +12°C° 0,7 mm 4 mps 762 mmHg 92%
    23:00 +12°C° 0,7 mm 4 mps 762 mmHg 93%

    Pasado mañana, 25 Enero, Jueves

    Tiempo Temperatura Precipitaciones Viento Presión Humedad
    00:00 +12°C° 0,8 mm 4 mps 762 mmHg 94%
    01:00 +12°C° 0,8 mm 4 mps 761 mmHg 96%
    02:00 +13°C° 0,8 mm 4 mps 761 mmHg 97%
    03:00 +12°C° 0,2 mm 4 mps 761 mmHg 96%
    04:00 +12°C° 0,2 mm 4 mps 761 mmHg 94%
    05:00 +12°C° 0,2 mm 4 mps 761 mmHg 93%
    06:00 +11°C° 0,1 mm 4 mps 761 mmHg 91%
    07:00 +11°C° 0,1 mm 4 mps 761 mmHg 89%
    08:00 +11°C° 0,1 mm 4 mps 762 mmHg 87%
    09:00 +10°C° 0,3 mm 5 mps 762 mmHg 84%
    10:00 +10°C° 0,3 mm 5 mps 762 mmHg 81%
    11:00 +10°C° 0,3 mm 6 mps 763 mmHg 77%
    12:00 +10°C° 0,2 mm 6 mps 762 mmHg 75%
    13:00 +10°C° 0,2 mm 7 mps 762 mmHg 73%
    14:00 +10°C° 0,2 mm 7 mps 762 mmHg 72%
    15:00 +9°C° 0,2 mm 7 mps 762 mmHg 74%
    16:00 +8°C° 0,2 mm 6 mps 763 mmHg 77%
    17:00 +7°C° 0,2 mm 6 mps 763 mmHg 80%
    18:00 +5°C° 0,1 mm 6 mps 763 mmHg 81%
    19:00 +5°C° 0,1 mm 6 mps 764 mmHg 81%
    20:00 +6°C° 0,1 mm 5 mps 765 mmHg 82%
    21:00 +6°C° 0,2 mm 5 mps 765 mmHg 83%
    22:00 +5°C° 0,2 mm 5 mps 765 mmHg 83%
    23:00 +5°C° 0,2 mm 4 mps 765 mmHg 84%

    26 Enero, Viernes

    Tiempo Temperatura Precipitaciones Viento Presión Humedad
    00:00 +5°C° 0,5 mm 5 mps 765 mmHg 85%
    01:00 +5°C° 0,5 mm 5 mps 765 mmHg 87%
    02:00 +5°C° 0,5 mm 5 mps 765 mmHg 88%
    03:00 +5°C° 0,2 mm 5 mps 765 mmHg 88%
    04:00 +5°C° 0,2 mm 5 mps 765 mmHg 89%
    05:00 +5°C° 0,2 mm 5 mps 766 mmHg 89%
    06:00 +5°C° 0 mm 5 mps 766 mmHg 88%
    07:00 +5°C° 0 mm 5 mps 767 mmHg 87%
    08:00 +5°C° 0 mm 5 mps 768 mmHg 85%
    09:00 +7°C° 0 mm 5 mps 768 mmHg 77%
    10:00 +8°C° 0 mm 5 mps 768 mmHg 69%
    11:00 +10°C° 0 mm 5 mps 769 mmHg 61%
    12:00 +10°C° 0 mm 5 mps 768 mmHg 59%
    13:00 +12°C° 0 mm 5 mps 768 mmHg 56%
    14:00 +12°C° 0 mm 5 mps 768 mmHg 54%
    15:00 +10°C° 0 mm 5 mps 768 mmHg 60%
    16:00 +9°C° 0 mm 5 mps 769 mmHg 67%
    17:00 +8°C° 0 mm 5 mps 769 mmHg 73%
    18:00 +7°C° 0 mm 5 mps 770 mmHg 77%
    19:00 +7°C° 0 mm 4 mps 770 mmHg 80%
    20:00 +6°C° 0 mm 4 mps 771 mmHg 83%
    21:00 +6°C° 0 mm 4 mps 771 mmHg 84%
    22:00 +5°C° 0 mm 4 mps 771 mmHg 85%
    23:00 +5°C° 0 mm 4 mps 771 mmHg 85%

    27 Enero, Sábado

    Tiempo Temperatura Precipitaciones Viento Presión Humedad
    00:00 +5°C° 0 mm 3 mps 771 mmHg 85%
    01:00 +5°C° 0 mm 3 mps 771 mmHg 85%
    02:00 +5°C° 0 mm 3 mps 771 mmHg 85%
    03:00 +5°C° 0 mm 3 mps 771 mmHg 85%
    04:00 +4°C° 0 mm 3 mps 771 mmHg 84%
    05:00 +4°C° 0 mm 3 mps 771 mmHg 84%
    06:00 +5°C° 0 mm 3 mps 771 mmHg 82%
    07:00 +5°C° 0 mm 3 mps 772 mmHg 80%
    08:00 +7°C° 0 mm 3 mps 772 mmHg 78%
    09:00 +9°C° 0 mm 3 mps 772 mmHg 73%
    10:00 +11°C° 0 mm 4 mps 771 mmHg 67%
    11:00 +12°C° 0 mm 4 mps 771 mmHg 62%
    12:00 +13°C° 0 mm 5 mps 771 mmHg 63%
    13:00 +13°C° 0 mm 5 mps 770 mmHg 64%
    14:00 +13°C° 0 mm 6 mps 769 mmHg 65%
    15:00 +11°C° 0 mm 6 mps 769 mmHg 71%
    16:00 +10°C° 0 mm 6 mps 769 mmHg 78%
    17:00 +9°C° 0 mm 6 mps 769 mmHg 84%
    18:00 +9°C° 0 mm 6 mps 769 mmHg 86%
    19:00 +9°C° 0 mm 6 mps 769 mmHg 88%
    20:00 +8°C° 0 mm 6 mps 769 mmHg 90%
    21:00 +8°C° 0 mm 6 mps 768 mmHg 91%
    22:00 +8°C° 0 mm 6 mps 768 mmHg 92%
    23:00 +8°C° 0 mm 6 mps 768 mmHg 93%

    28 Enero, Domingo

    Tiempo Temperatura Precipitaciones Viento Presión Humedad
    00:00 +7°C° 0 mm 6 mps 768 mmHg 93%
    01:00 +7°C° 0 mm 5 mps 767 mmHg 93%
    02:00 +7°C° 0 mm 5 mps 767 mmHg 93%
    03:00 +7°C° 0 mm 5 mps 767 mmHg 93%
    04:00 +7°C° 0 mm 5 mps 767 mmHg 92%
    05:00 +7°C° 0 mm 4 mps 767 mmHg 92%
    06:00 +7°C° 0 mm 4 mps 768 mmHg 89%
    07:00 +8°C° 0 mm 4 mps 768 mmHg 87%
    08:00 +9°C° 0 mm 3 mps 768 mmHg 84%
    09:00 +10°C° 0 mm 3 mps 768 mmHg 72%
    10:00 +12°C° 0 mm 3 mps 768 mmHg 60%
    11:00 +13°C° 0 mm 3 mps 768 mmHg 48%
    12:00 +14°C° 0 mm 3 mps 767 mmHg 45%
    13:00 +14°C° 0 mm 3 mps 767 mmHg 42%
    14:00 +16°C° 0 mm 3 mps 766 mmHg 40%
    15:00 +13°C° 0 mm 3 mps 766 mmHg 45%
    16:00 +12°C° 0 mm 3 mps 766 mmHg 50%
    17:00 +10°C° 0 mm 3 mps 766 mmHg 55%
    18:00 +9°C° 0 mm 3 mps 766 mmHg 56%
    19:00 +9°C° 0 mm 3 mps 766 mmHg 57%
    20:00 +8°C° 0 mm 3 mps 766 mmHg 58%
    21:00 +8°C° 0 mm 3 mps 766 mmHg 58%
    22:00 +8°C° 0 mm 3 mps 766 mmHg 58%
    23:00 +7°C° 0 mm 3 mps 766 mmHg 58%
    Mostrar más